Overview Statistics Trail Chart Weather Telemetry Raw packets
 

This is the latest recevied weather packets stored in our database for station/object KA1JKB. If no packets are shown the sender has not sent any weather packets the latest 10 day(s).

<< 59 60 61 62 63 64 65 >>
Time Temp. Humidity Pressure Rain* Wind** Luminosity Snow
1788016414 25° C 60% 1020.5 hPa 0 mm - 659 W/m² -
1788016113 25° C 63% 1020.7 hPa 0 mm - 667 W/m² -
1788015812 25° C 62% 1020.7 hPa 0 mm - 691 W/m² -
1788015508 24.44° C 64% 1020.6 hPa 0 mm - 639 W/m² -
1788015203 23.89° C 64% 1020.7 hPa 0 mm - 567 W/m² -
1788014901 23.89° C 65% 1020.5 hPa 0 mm - 622 W/m² -
1788014596 24.44° C 67% 1020.6 hPa 0 mm - 635 W/m² -
1788014291 23.89° C 69% 1020.5 hPa 0 mm - 570 W/m² -
1788013987 23.89° C 69% 1020.6 hPa 0 mm - 544 W/m² -
1788013681 23.33° C 71% 1020.6 hPa 0 mm - 546 W/m² -
1788013381 22.78° C 73% 1020.4 hPa 0 mm - 528 W/m² -
1788013080 22.78° C 72% 1020.2 hPa 0 mm - 532 W/m² -
1788012779 22.22° C 75% 1020 hPa 0 mm - 114 W/m² -
1788012475 22.22° C 74% 1020.3 hPa 0 mm - 504 W/m² -
1788012174 21.67° C 73% 1020.2 hPa 0 mm - 477 W/m² -
1788011874 21.67° C 75% 1020.2 hPa 0 mm - 480 W/m² -
1788011572 21.11° C 78% 1020.2 hPa 0 mm - 107 W/m² -
1788011268 21.11° C 77% 1020.1 hPa 0 mm - 111 W/m² -
1788010967 20.56° C 81% 1020.2 hPa 0 mm - 589 W/m² -
1788010662 20° C 84% 1020.1 hPa 0 mm - 88 W/m² -
1788010360 19.44° C 85% 1019.9 hPa 0 mm - 87 W/m² -
1788010055 18.89° C 87% 1020.1 hPa 0 mm - 92 W/m² -
1788009750 17.78° C 89% 1020.2 hPa 0 mm - 252 W/m² -
1788009448 17.78° C 93% 1020 hPa 0 mm - 174 W/m² -
1788009146 16.67° C 95% 1020.2 hPa 0 mm - 94 W/m² -

* Rain latest hour (hover to see other rain measurements)
** Current wind speed in m/s (hover to see current wind gust speed)